Tulsa Jones, OK

12:51 PM CDT on March 29, 2017 (GMT -0500)
Jones Jr.

Weather History for KRVS - March, 2013

Change the Weather History Date:

Saturday, March 16, 2013

  Actual Average (KTUL) Record (KTUL)
Temperature  
Mean Temperature 62 °F -  
Max Temperature 75 °F 62 °F 86 °F (1908)
Min Temperature 48 °F 39 °F 22 °F (1962)
Degree Days  
Heating Degree Days 4    
Growing Degree Days 12 (Base 50)    
Moisture  
Dew Point 43 °F    
Average Humidity 49    
Maximum Humidity 64    
Minimum Humidity 40    
Precipitation  
Precipitation 0.00 in - - ()
Sea Level Pressure  
Sea Level Pressure 29.80 in    
Wind  
Wind Speed 8 mph (ENE)    
Max Wind Speed 22 mph    
Max Gust Speed 31 mph    
Visibility 10 miles    
Events      
Averages and records for this station are not official NWS values.
T = Trace of Precipitation, MM = Missing Value Source: NWS Daily Summary

Daily Weather History Graph

Daily Weather History Graph

Search for Another Location

Airport or City:

Trip Planner

Search our weather history database for the weather conditions in past years. The results will help you decide how hot, cold, wet, or windy it might be!

Date:

Astronomy

Mar. 16, 2013 Rise Set
Actual Time 7:32 AM CDT 7:32 PM CDT
Civil Twilight 7:07 AM CDT 7:58 PM CDT
Nautical Twilight 6:37 AM CDT 8:27 PM CDT
Astronomical Twilight 6:07 AM CDT 8:58 PM CDT
Moon 10:12 AM CDT (3/16) No Moon Set
Length of Visible Light 12h 50m
Length of Day
11h 59m
Waxing Crescent, 23% of the Moon is Illuminated
Mar 16
Waxing Crescent
Mar 19
First Quarter
Mar 27
Full
Apr 2
Last Quarter
Apr 10
New

Hourly Weather History & Observations

Time (CDT) Temp. Dew Point Humidity Pressure Visibility Wind Dir Wind Speed Gust Speed Precip Events Conditions
12:53 AM 66.9 °F 43.0 °F 42% 29.77 in 10.0 mi South 6.9 mph - N/A   Clear
1:53 AM 66.0 °F 43.0 °F 43% 29.76 in 10.0 mi South 8.1 mph - N/A   Clear
2:53 AM 64.0 °F 43.0 °F 46% 29.76 in 10.0 mi South 6.9 mph - N/A   Clear
3:53 AM 62.1 °F 43.0 °F 50% 29.75 in 10.0 mi South 6.9 mph - N/A   Clear
4:53 AM 61.0 °F 42.1 °F 50% 29.74 in 10.0 mi South 8.1 mph - N/A   Clear
5:53 AM 61.0 °F 42.1 °F 50% 29.75 in 10.0 mi South 11.5 mph - N/A   Clear
6:53 AM 57.9 °F 42.1 °F 56% 29.77 in 10.0 mi Calm Calm - N/A   Clear
7:53 AM 55.0 °F 42.1 °F 62% 29.82 in 10.0 mi Calm Calm - N/A   Clear
8:53 AM 61.0 °F 45.0 °F 56% 29.83 in 10.0 mi Calm Calm - N/A   Clear
9:53 AM 64.9 °F 45.0 °F 48% 29.84 in 10.0 mi SSE 3.5 mph - N/A   Clear
10:53 AM 66.9 °F 45.0 °F 45% 29.85 in 10.0 mi Variable 3.5 mph - N/A   Clear
11:53 AM 70.0 °F 46.9 °F 44% 29.84 in 10.0 mi ESE 6.9 mph - N/A   Clear
12:53 PM 72.0 °F 46.0 °F 40% 29.83 in 10.0 mi Calm Calm - N/A   Clear
1:53 PM 73.0 °F 48.0 °F 41% 29.80 in 10.0 mi North 10.4 mph 17.3 mph N/A   Clear
2:53 PM 72.0 °F 48.0 °F 43% 29.78 in 10.0 mi NNE 11.5 mph - N/A   Clear
3:53 PM 71.1 °F 46.9 °F 42% 29.77 in 10.0 mi NNE 17.3 mph 21.9 mph N/A   Mostly Cloudy
4:53 PM 68.0 °F 45.0 °F 43% 29.77 in 10.0 mi NNE 16.1 mph 28.8 mph N/A   Partly Cloudy
5:53 PM 64.0 °F 43.0 °F 46% 29.79 in 10.0 mi NNE 16.1 mph 25.3 mph N/A   Mostly Cloudy
6:53 PM 59.0 °F 39.0 °F 48% 29.81 in 10.0 mi NNE 21.9 mph 31.1 mph N/A   Mostly Cloudy
7:53 PM 55.0 °F 37.9 °F 53% 29.82 in 10.0 mi NNE 13.8 mph 26.5 mph N/A   Overcast
8:53 PM 54.0 °F 37.9 °F 55% 29.85 in 10.0 mi NNE 11.5 mph 24.2 mph N/A   Overcast
9:53 PM 52.0 °F 37.0 °F 57% 29.86 in 10.0 mi NNE 17.3 mph 27.6 mph N/A   Overcast
10:53 PM 50.0 °F 37.0 °F 61% 29.88 in 10.0 mi NNE 15.0 mph 24.2 mph N/A   Overcast
11:53 PM 48.9 °F 37.0 °F 64% 29.88 in 10.0 mi NNE 13.8 mph - N/A   Overcast